Weather History for KMWC - October, 2013

Change the Weather History Date:

Thursday, October 24, 2013

  Actual Average (KMKE) Record (KMKE)
Temperature  
Mean Temperature 37 °F 48 °F  
Max Temperature 42 °F 56 °F 80 °F (1963)
Min Temperature 32 °F 41 °F 18 °F (1981)
Degree Days  
Heating Degree Days 28 17  
Month to date heating degree days 308  
Since 1 July heating degree days 460  
Cooling Degree Days 0 0  
Month to date cooling degree days 3  
Year to date cooling degree days 637  
Moisture  
Dew Point 25 °F    
Average Humidity 68    
Maximum Humidity 80    
Minimum Humidity 49    
Precipitation  
Precipitation 0.00 in 0.08 in 2.33 in (1991)
Month to date precipitation 2.04  
Year to date precipitation 29.40  
Snow  
Snow 0.00 in 0.00 in 0.20 in (1987)
Month to date snowfall 0.2  
Since 1 July snowfall 0.2  
Since 1 September snowfall 0.2  
Snow Depth -    
Sea Level Pressure  
Sea Level Pressure 30.11 in    
Wind  
Wind Speed 9 mph (WNW)    
Max Wind Speed 16 mph    
Max Gust Speed 22 mph    
Visibility 10 miles    
Events      
T = Trace of Precipitation, MM = Missing Value Source: NWS Daily Summary

Daily Weather History Graph

Daily Weather History Graph

Search for Another Location

Airport or City:

Trip Planner

Search our weather history database for the weather conditions in past years. The results will help you decide how hot, cold, wet, or windy it might be!

Date:

Astronomy

Oct. 24, 2013 Rise Set
Actual Time 7:17 AM CDT 5:54 PM CDT
Civil Twilight 6:47 AM CDT 6:23 PM CDT
Nautical Twilight 6:14 AM CDT 6:57 PM CDT
Astronomical Twilight 5:41 AM CDT 7:29 PM CDT
Moon 10:15 PM CDT (10/24) 12:21 PM CDT (10/24)
Length of Visible Light 11h 35m
Length of Day
10h 37m
Waning Gibbous, 71% of the Moon is Illuminated
Oct 24
Waning Gibbous
Oct 26
Last Quarter
Nov 3
New
Nov 9
First Quarter
Nov 17
Full

Hourly Weather History & Observations

Time (CDT) Temp. Windchill Dew Point Humidity Pressure Visibility Wind Dir Wind Speed Gust Speed Precip Events Conditions
12:15 AM 33.8 °F 27.0 °F 26.6 °F 75% 29.99 in 10.0 mi West 8.1 mph - N/A   Overcast
12:35 AM 33.8 °F 27.7 °F 26.6 °F 75% 29.99 in 10.0 mi WNW 6.9 mph - N/A   Overcast
12:55 AM 33.8 °F 26.4 °F 26.6 °F 75% 29.99 in 10.0 mi West 9.2 mph - N/A   Overcast
1:15 AM 33.8 °F 27.0 °F 26.6 °F 75% 30.00 in 10.0 mi WNW 8.1 mph - N/A   Overcast
1:35 AM 33.8 °F 27.7 °F 26.6 °F 75% 30.00 in 10.0 mi West 6.9 mph - N/A   Overcast
1:55 AM 33.8 °F 27.7 °F 26.6 °F 75% 30.00 in 10.0 mi West 6.9 mph - N/A   Overcast
2:15 AM 33.8 °F 27.0 °F 26.6 °F 75% 30.01 in 10.0 mi WNW 8.1 mph - N/A   Overcast
2:35 AM 33.8 °F 27.7 °F 26.6 °F 75% 30.01 in 10.0 mi West 6.9 mph - N/A   Overcast
2:55 AM 33.8 °F 27.7 °F 26.6 °F 75% 30.01 in 10.0 mi WNW 6.9 mph - N/A   Overcast
3:15 AM 33.8 °F 28.6 °F 26.6 °F 75% 30.01 in 10.0 mi WNW 5.8 mph - N/A   Overcast
3:35 AM 33.8 °F 28.6 °F 26.6 °F 75% 30.01 in 10.0 mi West 5.8 mph - N/A   Overcast
3:55 AM 33.8 °F 27.7 °F 26.6 °F 75% 30.01 in 10.0 mi West 6.9 mph - N/A   Overcast
4:15 AM 33.8 °F 27.7 °F 26.6 °F 75% 30.02 in 10.0 mi WNW 6.9 mph - N/A   Overcast
4:35 AM 33.8 °F 28.6 °F 26.6 °F 75% 30.03 in 10.0 mi WNW 5.8 mph - N/A   Overcast
4:55 AM 33.8 °F 27.0 °F 26.6 °F 75% 30.03 in 10.0 mi WNW 8.1 mph - N/A   Overcast
5:15 AM 33.8 °F 26.4 °F 26.6 °F 75% 30.03 in 10.0 mi WNW 9.2 mph - N/A   Overcast
5:35 AM 33.8 °F 25.3 °F 24.8 °F 70% 30.04 in 10.0 mi WNW 11.5 mph - N/A   Overcast
5:55 AM 32.0 °F 24.8 °F 26.6 °F 80% 30.04 in 10.0 mi WNW 8.1 mph - N/A   Overcast
6:15 AM 32.0 °F 24.2 °F 24.8 °F 75% 30.05 in 10.0 mi WNW 9.2 mph - N/A   Overcast
6:35 AM 32.0 °F 24.2 °F 24.8 °F 75% 30.06 in 10.0 mi WNW 9.2 mph - N/A   Overcast
6:45 AM 32.0 °F 24.8 °F 24.8 °F 75% 30.06 in 10.0 mi WNW 8.1 mph - N/A   Mostly Cloudy
6:55 AM 32.0 °F 24.8 °F 24.8 °F 75% 30.06 in 10.0 mi WNW 8.1 mph - N/A   Mostly Cloudy
7:45 AM 32.0 °F 24.2 °F 24.8 °F 75% 30.07 in 10.0 mi WNW 9.2 mph - N/A   Mostly Cloudy
8:45 AM 35.6 °F 27.1 °F 24.8 °F 65% 30.09 in 10.0 mi WNW 12.7 mph 18.4 mph N/A   Overcast
9:45 AM 35.6 °F 27.1 °F 24.8 °F 65% 30.11 in 10.0 mi NW 12.7 mph 21.9 mph N/A   Mostly Cloudy
10:45 AM 39.2 °F 32.5 °F 24.8 °F 56% 30.13 in 10.0 mi NW 10.4 mph 19.6 mph N/A   Scattered Clouds
11:45 AM 39.2 °F 32.5 °F 23.0 °F 52% 30.14 in 10.0 mi NW 10.4 mph 16.1 mph N/A   Mostly Cloudy
12:45 PM 39.2 °F 30.5 °F 23.0 °F 52% 30.15 in 10.0 mi NW 16.1 mph - N/A   Overcast
1:45 PM 39.2 °F 31.2 °F 24.8 °F 56% 30.15 in 10.0 mi WNW 13.8 mph 20.7 mph N/A   Overcast
2:45 PM 41.0 °F 34.3 °F 24.8 °F 53% 30.15 in 10.0 mi WNW 11.5 mph 17.3 mph N/A   Overcast
3:45 PM 42.8 °F 36.6 °F 24.8 °F 49% 30.17 in 10.0 mi West 11.5 mph 19.6 mph N/A   Overcast
4:45 PM 41.0 °F 37.1 °F 24.8 °F 53% 30.18 in 10.0 mi NW 5.8 mph - N/A   Mostly Cloudy
5:45 PM 39.2 °F 32.0 °F 23.0 °F 52% 30.19 in 10.0 mi WNW 11.5 mph - N/A   Clear
6:45 PM 37.4 °F 32.1 °F 23.0 °F 56% 30.21 in 10.0 mi West 6.9 mph - N/A   Clear
7:45 PM 35.6 °F 29.2 °F 23.0 °F 60% 30.23 in 10.0 mi West 8.1 mph - N/A   Mostly Cloudy
8:45 PM 37.4 °F 32.8 °F 24.8 °F 60% 30.23 in 10.0 mi West 5.8 mph - N/A   Mostly Cloudy
9:15 PM 35.6 °F 28.0 °F 26.6 °F 70% 30.24 in 10.0 mi WNW 10.4 mph - N/A   Overcast
9:35 PM 35.6 °F 28.0 °F 26.6 °F 70% 30.24 in 10.0 mi WNW 10.4 mph - N/A   Mostly Cloudy
9:55 PM 35.6 °F 28.0 °F 24.8 °F 65% 30.25 in 10.0 mi West 10.4 mph - N/A   Scattered Clouds
10:15 PM 35.6 °F 27.5 °F 24.8 °F 65% 30.25 in 10.0 mi WNW 11.5 mph 16.1 mph N/A   Mostly Cloudy
10:35 PM 35.6 °F 28.0 °F 24.8 °F 65% 30.25 in 10.0 mi WNW 10.4 mph 16.1 mph N/A   Overcast
10:55 PM 35.6 °F 28.0 °F 24.8 °F 65% 30.26 in 10.0 mi WNW 10.4 mph - N/A   Overcast
11:15 PM 33.8 °F 26.4 °F 24.8 °F 70% 30.26 in 10.0 mi WNW 9.2 mph - N/A   Mostly Cloudy
11:35 PM 33.8 °F 27.0 °F 24.8 °F 70% 30.27 in 10.0 mi West 8.1 mph - N/A   Clear
11:55 PM 33.8 °F 27.7 °F 24.8 °F 70% 30.27 in 10.0 mi West 6.9 mph - N/A   Clear